This is the latest recevied weather packets stored in our database for station/object N0QV. If no packets are shown the sender has not sent any weather packets the latest 10 day(s).
| Time | Temp. | Humidity | Pressure | Rain* | Wind** | Luminosity | Snow |
|---|---|---|---|---|---|---|---|
| 1777767554 | 18.89° C | 31% | 1012 hPa | 0 mm | - | 6 W/m² | - |
| 1777767250 | 18.33° C | 31% | 1011.8 hPa | 0 mm | - | 9 W/m² | - |
| 1777766949 | 18.89° C | 33% | 1011.9 hPa | 0 mm | - | 16 W/m² | - |
| 1777766645 | 18.89° C | 30% | 1012 hPa | 0 mm | - | 15 W/m² | - |
| 1777766342 | 18.89° C | 31% | 1011.8 hPa | 0 mm | - | 20 W/m² | - |
| 1777766039 | 19.44° C | 30% | 1011.8 hPa | 0 mm | - | 36 W/m² | - |
| 1777765736 | 19.44° C | 29% | 1011.9 hPa | 0 mm | - | 73 W/m² | - |
| 1777765433 | 19.44° C | 29% | 1011.8 hPa | 0 mm | - | 91 W/m² | - |
| 1777765130 | 19.44° C | 28% | 1011.8 hPa | 0 mm | - | 97 W/m² | - |
| 1777764826 | 19.44° C | 30% | 1011.8 hPa | 0 mm | - | 97 W/m² | - |
| 1777764523 | 20° C | 29% | 1011.8 hPa | 0 mm | - | 86 W/m² | - |
| 1777764219 | 20.56° C | 30% | 1011.9 hPa | 0 mm | - | 120 W/m² | - |
| 1777763916 | 20.56° C | 28% | 1011.8 hPa | 0 mm | - | 178 W/m² | - |
| 1777763614 | 20° C | 31% | 1012 hPa | 0 mm | - | 179 W/m² | - |
| 1777763312 | 20° C | 31% | 1012.3 hPa | 0 mm | - | 133 W/m² | - |
| 1777763010 | 20° C | 30% | 1012.3 hPa | 0 mm | - | 194 W/m² | - |
| 1777762706 | 20° C | 29% | 1012.2 hPa | 0 mm | - | 183 W/m² | - |
| 1777762403 | 20° C | 29% | 1012.4 hPa | 0 mm | - | 122 W/m² | - |
| 1777762100 | 20.56° C | 29% | 1012.2 hPa | 0 mm | - | 133 W/m² | - |
| 1777761796 | 20.56° C | 29% | 1012.4 hPa | 0 mm | - | 305 W/m² | - |
| 1777761494 | 20.56° C | 29% | 1012.3 hPa | 0 mm | - | 184 W/m² | - |
| 1777761192 | 20.56° C | 27% | 1012.2 hPa | 0 mm | - | 320 W/m² | - |
| 1777760889 | 20.56° C | 28% | 1012.6 hPa | 0 mm | - | 226 W/m² | - |
| 1777760586 | 21.11° C | 28% | 1012.6 hPa | 0 mm | - | 188 W/m² | - |
| 1777760282 | 21.67° C | 28% | 1012.6 hPa | 0 mm | - | 330 W/m² | - |
* Rain latest hour (hover to see other rain measurements)
** Current wind speed in m/s (hover to see current wind gust speed)